This demonstration page uses our WeatherBlox Daily Observations layout. Learn more.

Hourly Observations for February 9, 2017

Temp ( °F °C ) Dew Point ( °F °C ) Humidity (%) Winds ( mph kmh ) Pressure ( in mb ) Visibility ( mi km ) Precip ( " mm )
12:15 am 00:15 Clear 15 -9.3 9 -12.6 77 77 E 6 9 30.42 1030 10 16.0934 0 0
12:35 am 00:35 Clear 14 -9.8 9 -12.7 80 80 E 5 7 30.45 1031 10 16.0934 0 0
12:55 am 00:55 Clear 15 -9.7 9 -12.8 78 78 E 7 11 30.45 1031 10 16.0934 0 0
1:15 am 01:15 Clear 14 -9.8 9 -12.8 79 79 E 3 6 30.45 1031 10 16.0934 0 0
1:35 am 01:35 Partly Cloudy 14 -9.8 9 -12.8 79 79 E 6 9 30.45 1031 10 16.0934 0 0
1:55 am 01:55 Mostly Cloudy 15 -9.3 9 -13 75 75 E 9 15 30.45 1031 10 16.0934 0 0
2:15 am 02:15 Cloudy 16 -9.1 9 -12.8 75 75 ESE 6 9 30.45 1031 10 16.0934 0 0
2:35 am 02:35 Cloudy 16 -9 10 -12.5 76 76 SE 7 11 30.45 1031 10 16.0934 0 0
2:55 am 02:55 Cloudy 16 -9 10 -12.5 76 76 ESE 7 11 30.42 1030 10 16.0934 0 0
3:15 am 03:15 Cloudy 16 -8.8 10 -12.5 75 75 SE 7 11 30.42 1030 10 16.0934 0 0
3:35 am 03:35 Cloudy 17 -8.6 10 -12.4 74 74 SE 6 9 30.42 1030 10 16.0934 0 0
3:55 am 03:55 Cloudy 17 -8.5 10 -12.1 76 76 SE 6 9 30.42 1030 10 16.0934 0 0
4:15 am 04:15 Cloudy 17 -8.4 10 -12.5 73 73 SE 7 11 30.42 1030 10 16.0934 0 0
4:35 am 04:35 Mostly Cloudy 17 -8.3 10 -12.3 73 73 SSE 7 11 30.42 1030 10 16.0934 0 0
4:55 am 04:55 Mostly Cloudy 17 -8.3 10 -12.3 73 73 SE 8 13 30.42 1030 10 16.0934 0 0
5:15 am 05:15 Partly Cloudy 17 -8.2 10 -12.1 74 74 SE 9 15 30.42 1030 10 16.0934 0 0
5:35 am 05:35 Mostly Cloudy 17 -8.2 10 -12.1 74 74 SE 8 13 30.42 1030 10 16.0934 0 0
5:55 am 05:55 Cloudy 17 -8.1 10 -12 74 74 ESE 8 13 30.42 1030 10 16.0934 0 0
6:15 am 06:15 Cloudy 18 -8 10 -12.2 72 72 SE 10 17 30.42 1030 10 16.0934 0 0
6:35 am 06:35 Cloudy 18 -8 10 -12 73 73 ESE 9 15 30.42 1030 10 16.0934 0 0
6:55 am 06:55 Cloudy 18 -7.8 10 -12.1 72 72 SE 12 19 30.42 1030 10 16.0934 0 0
7:15 am 07:15 Cloudy 18 -7.8 10 -12.1 72 72 SE 12 19 30.39 1029 10 16.0934 0 0
7:35 am 07:35 Cloudy 18 -7.7 10 -12.1 71 71 SE 13 20 30.42 1030 10 16.0934 0 0
7:55 am 07:55 Cloudy 18 -7.6 10 -12.2 70 70 SE 9 15 30.42 1030 10 16.0934 0 0
8:15 am 08:15 Mostly Cloudy 18 -7.9 10 -12 73 73 SSE 12 19 30.39 1029 10 16.0934 0 0
8:35 am 08:35 Mostly Cloudy 18 -7.7 10 -12.2 70 70 SSE 12 19 30.42 1030 10 16.0934 0 0
8:55 am 08:55 Partly Cloudy 19 -7.2 10 -12 69 69 S 12 19 30.39 1029 10 16.0934 0 0
9:15 am 09:15 Partly Cloudy 20 -6.7 10 -12 66 66 S 10 17 30.39 1029 10 16.0934 0 0
9:35 am 09:35 Sunny 21 -5.9 11 -11.8 63 63 S 13 20 30.39 1029 10 16.0934 0 0
9:55 am 09:55 Partly Cloudy 22 -5.5 11 -11.8 62 62 S 16 26 30.39 1029 10 16.0934 0 0
10:15 am 10:15 Sunny 24 -4.6 11 -11.4 59 59 S 17 28 30.33 1027 10 16.0934 0 0
10:35 am 10:35 Sunny 25 -4.1 11 -11.6 56 56 SSE 20 31 30.33 1027 10 16.0934 0 0
10:55 am 10:55 Sunny 26 -3.1 11 -11.6 52 52 S 16 26 30.33 1027 10 16.0934 0 0
11:15 am 11:15 Sunny 28 -2.1 11 -11.5 49 49 SSE 18 30 30.33 1027 10 16.0934 0 0
11:35 am 11:35 Sunny 28 -2.1 11 -11.5 49 49 S 16 26 30.3 1026 10 16.0934 0 0
11:55 am 11:55 Sunny 29 -1.4 12 -11.3 47 47 SSE 21 33 30.27 1025 10 16.0934 0 0
12:15 pm 12:15 Sunny 31 -0.8 12 -11.2 46 46 S 21 33 30.24 1024 10 16.0934 0 0
12:35 pm 12:35 Sunny 31 -0.4 13 -10.8 46 46 S 21 33 30.24 1024 10 16.0934 0 0
12:55 pm 12:55 Sunny 32 0 13 -10.4 46 46 S 22 35 30.24 1024 10 16.0934 0 0
1:15 pm 13:15 Sunny 33 0.5 14 -10.1 45 45 SSE 21 33 30.18 1022 10 16.0934 0 0
1:35 pm 13:35 Sunny 35 1.7 15 -9.6 43 43 S 21 33 30.18 1022 10 16.0934 0 0
1:55 pm 13:55 Sunny 36 2.3 15 -9.4 42 42 S 20 31 30.15 1021 10 16.0934 0 0
2:15 pm 14:15 Sunny 37 2.9 15 -9.2 41 41 S 16 26 30.15 1021 10 16.0934 0 0
2:35 pm 14:35 Sunny 39 3.7 16 -9.1 39 39 S 20 31 30.09 1019 10 16.0934 0 0
2:55 pm 14:55 Sunny 40 4.3 16 -8.8 38 38 S 16 26 30.09 1019 10 16.0934 0 0
3:15 pm 15:15 Sunny 41 4.9 17 -8.6 37 37 S 18 30 30.06 1018 10 16.0934 0 0
3:35 pm 15:35 Sunny 41 5 17 -8.6 37 37 S 18 30 30.06 1018 10 16.0934 0 0
3:55 pm 15:55 Sunny 41 5 17 -8.2 38 38 S 20 31 30.06 1018 10 16.0934 0 0
4:15 pm 16:15 Sunny 41 4.9 17 -8.1 39 39 S 18 30 30.03 1017 10 16.0934 0 0
4:35 pm 16:35 Sunny 40 4.5 17 -8.1 40 40 S 18 30 30.03 1017 10 16.0934 0 0
4:55 pm 16:55 Sunny 40 4.4 18 -7.9 41 41 S 15 24 30.03 1017 10 16.0934 0 0
5:15 pm 17:15 Sunny 39 4.1 18 -7.7 42 42 S 15 24 30.03 1017 10 16.0934 0 0
5:35 pm 17:35 Sunny 38 3.5 19 -7.4 45 45 S 12 19 30.03 1017 10 16.0934 0 0
5:55 pm 17:55 Sunny 38 3.1 19 -7.2 47 47 S 14 22 30.03 1017 10 16.0934 0 0
6:15 pm 18:15 Clear 37 2.9 19 -7.2 48 48 SSE 12 19 30 1016 10 16.0934 0 0
6:35 pm 18:35 Clear 35 1.7 19 -7 53 53 SSE 12 19 30.03 1017 10 16.0934 0 0
6:55 pm 18:55 Clear 36 2 20 -6.8 53 53 S 12 19 29.97 1015 10 16.0934 0 0
7:15 pm 19:15 Clear 36 2.3 19 -7 51 51 SSE 15 24 29.97 1015 10 16.0934 0 0
7:35 pm 19:35 Clear 36 2 19 -7 52 52 SSE 13 20 29.97 1015 10 16.0934 0 0
7:55 pm 19:55 Clear 35 1.9 19 -7 52 52 S 13 20 29.97 1015 10 16.0934 0 0
8:15 pm 20:15 Clear 35 1.9 20 -6.7 53 53 S 14 22 29.94 1014 10 16.0934 0 0
8:35 pm 20:35 Clear 35 1.8 20 -6.6 54 54 S 18 30 29.94 1014 10 16.0934 0 0
8:55 pm 20:55 Clear 35 1.7 20 -6.6 54 54 S 17 28 29.91 1013 10 16.0934 0 0
9:15 pm 21:15 Clear 35 1.5 20 -6.5 56 56 S 15 24 29.91 1013 10 16.0934 0 0
9:35 pm 21:35 Clear 34 1.3 20 -6.5 56 56 S 14 22 29.91 1013 10 16.0934 0 0
9:55 pm 21:55 Clear 35 1.5 20 -6.5 56 56 S 17 28 29.91 1013 10 16.0934 0 0
10:15 pm 22:15 Clear 35 1.5 20 -6.5 56 56 S 17 28 29.88 1012 10 16.0934 0 0
10:35 pm 22:35 Clear 35 1.5 20 -6.5 56 56 S 20 31 29.88 1012 10 16.0934 0 0
10:55 pm 22:55 Clear 35 1.5 21 -6.2 57 57 S 17 28 29.88 1012 10 16.0934 0 0
11:15 pm 23:15 Clear 35 1.4 21 -6.2 57 57 S 18 30 29.88 1012 10 16.0934 0 0
11:35 pm 23:35 Clear 35 1.5 21 -6.1 57 57 SSW 16 26 29.85 1011 10 16.0934 0 0
11:55 pm 23:55 Clear 35 1.5 21 -6.1 57 57 SSW 16 26 29.85 1011 10 16.0934 0 0

Powered by AerisWeather